Regional Weather Roundup
Issued by NWS

Home | Current Version | Previous Version | Graphics & Text | Print | Product List | Glossary On
Versions: 1 2 3 4 5 6 7 8 9 10 11 12 13 14 15 16 17 18 19 20 21 22 23 24 25 26 27 28 29 30 31 32 33 34 35 36 37 38 39 40 41 42 43 44 45 46 47 48 49 50
000
ASUS43 KLMK 292010
RWRKY
KENTUCKY REGIONAL WEATHER ROUNDUP
NATIONAL WEATHER SERVICE LOUISVILLE KY
400 PM EDT FRI JUL 29 2016

NOTE "FAIR" INDICATES FEW OR NO CLOUDS BELOW 12,000 FEET
WITH NO SIGNIFICANT WEATHER AND/OR OBSTRUCTIONS TO VISIBILITY.

KYZ001>023-026-027-061>063-070>075-292100-
WESTERN AND SOUTH CENTRAL KENTUCKY

CITY           SKY/WX    TMP DP  RH WIND       PRES   REMARKS
PADUCAH        PTSUNNY   87  74  64 W7        29.90S HX  95
HENDERSON      CLOUDY    86  73  66 W5        29.88F HX  93
OWENSBORO      PTSUNNY   86  75  69 W7        29.90F HX  95
HOPKINSVILLE   MOSUNNY   81  73  76 W6        29.92F
BOWLING GREEN  MOSUNNY   82  73  74 SE8       29.94F
GLASGOW        MOSUNNY   82  71  71 SW6       29.95F
$$

KYZ024-025-028>034-038-045-046-053-292100-
NORTH CENTRAL KENTUCKY

CITY           SKY/WX    TMP DP  RH WIND       PRES   REMARKS
LOUISVILLE/SDF PTSUNNY   87  70  56 SW15      29.89F HX  92
LOUISVILLE/LOU PTSUNNY   86  72  62 S12       29.89F HX  92
FORT KNOX      MOSUNNY   85  72  65 SW8       29.90F HX  90
$$

KYZ035>037-039>044-047>052-055>060-089>105-292100-
NORTHEAST KENTUCKY

CITY           SKY/WX    TMP DP  RH WIND       PRES   REMARKS
LEXINGTON      LGT RAIN  82  74  76 SW10      29.93F
COVINGTON      PTSUNNY   86  71  60 S8        29.90F HX  91
FRANKFORT      CLOUDY    83  74  74 S10       29.91F
$$

KYZ054-064>069-076>088-106>120-292100-
SOUTHEAST KENTUCKY

CITY           SKY/WX    TMP DP  RH WIND       PRES   REMARKS
JACKSON        LGT RAIN  76  72  87 CALM      29.98S
LONDON         RAIN      72  68  87 W7        30.00R
SOMERSET       LGT RAIN  70  70 100 S3        30.00F
MIDDLESBORO    TSTM      71  70  97 SW7G20    30.00R VSB 1/2
MONTICELLO     RAIN     N/A N/A N/A VRB5      30.01F
$$





USA.gov is the U.S. government's official web portal to all federal, state and local government web resources and services.